Regional Weather Roundup
Issued by NWS

Home | Current Version | Previous Version | Graphics & Text | Print | Product List | Glossary Off
Versions: 1 2 3 4 5 6 7 8 9 10 11 12 13 14 15 16 17 18 19 20 21 22 23 24 25 26 27 28 29 30 31 32 33 34 35 36 37 38 39 40 41 42 43 44 45 46 47 48 49 50

000
ASUS43 KDTX 312101
RWRMI
MICHIGAN HOURLY REGIONAL WEATHER ROUNDUP
NATIONAL WEATHER SERVICE DETROIT/PONTIAC MI
400 PM EST SAT JAN 31 2015

NOTE: "FAIR" INDICATES FEW OR NO CLOUDS BELOW 12,000 FEET WITH NO
SIGNIFICANT WEATHER AND/OR OBSTRUCTION TO VISIBILITY.

MIZ047>049-052>055-059>063-066>070-074>076-081>083-312200-
SOUTHEAST LOWER MICHIGAN

CITY           SKY/WX    TMP DP  RH WIND       PRES   REMARKS
ADRIAN         SUNNY     35  21  56 W9        30.18S WCI  28
ALMA           CLOUDY    32  26  78 W7        30.15R WCI  26
ANN ARBOR      CLOUDY    35  20  54 W10       30.17S WCI  27
BAD AXE        CLOUDY    28  23  81 W9        30.14S WCI  20
CARO           CLOUDY    31  23  72 SW7       30.14S WCI  24
DETROIT CITY   CLOUDY    34  20  56 SW8       30.18S WCI  27
DETROIT        CLOUDY    33  22  63 S12       30.19S WCI  24
FLINT          CLOUDY    33  21  61 SW9       30.16S WCI  25
GROSSE ILE     CLOUDY    34  21  60 SW6       30.18R WCI  29
HILLSDALE      SUNNY     35  20  54 SW8       30.15S WCI  29
HOWELL         CLOUDY    33  20  60 SW8       30.15S WCI  25

CITY           SKY/WX    TMP DP  RH WIND       PRES   REMARKS
JACKSON        SUNNY     34  20  56 W8        30.15S WCI  27
LAMBERTVILLE   SUNNY     36  23  60 SW9       30.19F WCI  29
LANSING        CLOUDY    33  21  61 W12       30.16R WCI  24
LAPEER         CLOUDY    31  20  63 W6        30.15S WCI  26
MASON          CLOUDY    33  20  60 SW3       30.15S
MONROE         CLOUDY    36  25  64 SW6       30.18S WCI  31
MT. CLEMENS    CLOUDY    33  19  58 SW9       30.15F WCI  25
PONTIAC        CLOUDY    32  18  56 SW6       30.14S WCI  26
PORT HOPE        N/A     28  20  71 SW8       30.12S WCI  20
PORT HURON     CLOUDY    28  21  74 S6        30.17F WCI  22
TRI CITIES     CLOUDY    33  24  69 SW9       30.15S WCI  25
TROY           CLOUDY    34  18  52 SW3       30.18S
SAGINAW HB     CLOUDY    32  27  80 SW9       30.14S WCI  24
$$
MIZ043>046-050>051-056>058-064>065-071>073-077>080-312200-
SOUTHWEST LOWER MICHIGAN

CITY           SKY/WX    TMP DP  RH WIND       PRES   REMARKS
BATTLE CREEK   MOSUNNY   35  22  58 SW12      30.16R WCI  27
BENTON HARBOR  PTSUNNY   35  26  69 W12       30.17S WCI  27
BIG RAPIDS     CLOUDY    31  24  75 W5        30.13R WCI  26
COLDWATER      MOSUNNY   35  23  62 SW9       30.16S WCI  27
FREMONT        CLOUDY    31  22  67 NW5       30.15R WCI  26
HOLLAND        CLOUDY    34  25  69 W7        30.17S WCI  28
GRAND RAPIDS   CLOUDY    32  25  75 SW13      30.16S WCI  22
IONIA          CLOUDY    33  26  76 SW13      30.15S WCI  24
KALAMAZOO      MOSUNNY   36  22  56 SW7       30.16S WCI  30
LUDINGTON      CLOUDY    31  24  75 N5        30.17R WCI  26
MARSHALL       SUNNY     34  21  59 SW9       30.15S WCI  26
MOUNT PLEASANT CLOUDY    32  24  72 W6        30.14R WCI  26
MUSKEGON       CLOUDY    32  23  69 W6        30.17R WCI  26
SOUTH HAVEN    CLOUDY    35  26  70 W6        30.17S WCI  30
$$
MIZ016>042-312200-
NORTHERN LOWER MICHIGAN

CITY           SKY/WX    TMP DP  RH WIND       PRES   REMARKS
ALPENA         CLOUDY    27  18  69 NW6       30.11R WCI  20
BEAVER ISLAND  CLOUDY    24  18  76 CALM      30.17R
BELLAIRE       CLOUDY    28  19  70 NW3       30.16R
CADILLAC       CLOUDY    26  21  82 NW6       30.11R WCI  19
CHARLEVOIX     FLURRIES  26  20  80 NW13      30.19R WCI  14
FRANKFORT      CLOUDY    28  22  77 N5        30.17R WCI  23
GAYLORD        CLOUDY    23  18  81 NW7       30.09R WCI  15
GRAYLING       CLOUDY    26  21  83 NW7       30.12R WCI  18
HARBOR SPRINGS CLOUDY    26  18  73 W7        30.14R WCI  18
HOUGHTON LAKE  CLOUDY    26  20  77 W8        30.12R WCI  18
MANISTEE       CLOUDY    28  19  69 N6        30.18R WCI  22
OSCODA         CLOUDY    28  20  73 W9        30.12S WCI  19
PELLSTON       CLOUDY    25  18  74 NW13G22   30.14R WCI  14
TRAVERSE CITY  CLOUDY    28  20  71 NW7       30.16R WCI  21
$$
MIZ007>008-015-312200-
EASTERN UPPER MICHIGAN

CITY           SKY/WX    TMP DP  RH WIND       PRES   REMARKS
KINROSS        PTSUNNY   21  18  86 NW20G28   30.08R WCI   6
MACKINAC ISLAN CLOUDY    25  19  77 W9        30.10R WCI  15
NEWBERRY       LGT SNOW  20  17  88 NW10G18   30.12R WCI   9
S. S. MARIE    LGT SNOW  21  14  74 NW18G26   30.10R WCI   6
$$
MIZ004>006-011>014-085-312200-
CENTRAL UPPER MICHIGAN

CITY           SKY/WX    TMP DP  RH WIND       PRES   REMARKS
MANISTIQUE     CLOUDY    22  14  72 NW17G24   30.18R WCI   8
ESCANABA       CLOUDY    25  14  63 N12       30.20R WCI  14
MENOMINEE      CLOUDY    28  18  64 N10       30.17S WCI  19
SAWYER-GWINN   LGT SNOW  18  10  73 N21       30.17R WCI   1
$$
MIZ001>003-009>011-084-312200-
WESTERN UPPER MICHIGAN

CITY           SKY/WX    TMP DP  RH WIND       PRES   REMARKS
IRON MOUNTAIN  CLOUDY    24  13  62 N14       30.16R WCI  12
HOUGHTON       CLOUDY    14   5  67 N12       30.23R WCI   0
COPPER HARBOR    N/A     14   4  64 N23G29    30.28R WCI  -5
IRONWOOD       CLOUDY    18   9  68 N8        30.21R WCI   7
$$

ABBREVIATIONS USED IN REMARKS
   TC - TEMPERATURE IN CELSIUS
  WCI - WIND CHILL INDEX
   HX - HEAT INDEX
  VSB - VISIBILITY




USA.gov is the U.S. government's official web portal to all federal, state and local government web resources and services.